Jaime Gonzalez Airport
MUCF : now visible

Airfield :











YOU CAN JOIN US ON...

 
LOGIN :

Register | Disclaimer

   EN    FR    IT 

 









Legend :    VFR   Marginal VFR   IFR   Intensive IFR   Very Intensive IFR
Visi :
Ceiling :
>= 8 km
>= 3000ft
5 to 8 km
1000 to 3000 ft
1500m to 5 km
500 to 1000 ft
800 to 1500m
200 to 500 ft
< 800m
< 200 ft
Symbols :   Thunderstorms  Fog  Heavy snow  Heavy precipitations  Wind > 20 kt






- Airport Elevation : 102 ft
- IATA code : CFG


MUCF - Jaime Gonzalez

CURRENT METAR :
  • 130358Z AUTO 07006KT 030V090 20/18 Q1018

EXPIRED METARs :
  • 130259Z AUTO 09005KT 050V130 21/18 Q1018
  • 130159Z AUTO 07008KT 22/19 Q1018

TAF MUCF
Valid from the 12 at 18:00 until the 13 at 06:00 UTC


121700Z 1218/1306 07010KT 9000 SCT020
BECMG 1300/1302 VRB03KT



MET'MAP, your aeronautical weather chart ! - Copyright ORBIFLY December 2007 - Disclaimer

ORBIFLY MET'MAP TEAM :

Programming & Development : Alexandra Zaïnal
Concept & original design : Baudouin d'Aumeries
Assistance for programming : Marc-Olivier Méhu
Technical & hardware support : Manuel Goepfert

Contact : metmap@orbifly.com




SOURCES & CREDITS :

   NOAA       Earth
Advisory